www.pogodaiklimat.ru

Погода и климат >> Архив погоды >> Ирак >> Badrah


ПОГОДА в Badrah

  • Прогноз погоды в Badrah
  • Монитор погоды в Badrah
  • Климат города

АРХИВ ПОГОДЫ в Badrah

Время (UTC), дата Ветер
(напр.,м/с)
 
Видим.   Явления Облачность Т
(С)
Тd
(С)
f
(%)
Тe
(С)
Тes
(С)
Комфортность P
(гПа)
Po
(гПа)
Тmin
(С)
Tmax
(С)
R
(мм)
R24
(мм)
S
(см)
00 16.10 С 1 10 км ясно +21.8 +5.9 36 +22 +22 комфорт 1011.4 1011.0
03 16.10 штиль 0 10 км ясно +19.4 +6.6 43 +20 +20 1011.5 1012.0
06 16.10 ЮВ 1 6000 м пыль ясно +25.5 +7.1 31 +25 +32 комфорт 1012.4 1012.0 +19.4
09 16.10 ЮВ 1 7000 м пыль ясно +32.8 +8.0 22 +31 +45 жарко 1012.2 1012.0
15 16.10 С 3 7000 м пыль ясно +29.3 +2.6 18 +27 +27 жарко 1011.3 1011.0
18 16.10 С 1 7000 м пыль ясно +23.6 +3.8 28 +23 +23 комфорт 1011.4 1011.0 +34.5
21 16.10 С 2 7000 м пыль ясно +21.7 +4.2 32 +22 +22 комфорт 1012.5 1013.0
00 17.10 СЗ 1 7000 м пыль ясно +19.4 +1.5 30 +21 +21 комфорт 1012.5 1013.0
03 17.10 штиль 0 7000 м пыль ясно +16.7 +8.2 57 +17 +17 1012.6 1013.0
06 17.10 С 2 5000 м пыль ясно +23.0 +3.3 28 +23 +28 комфорт 1013.4 1013.0 +16.4
09 17.10 СЗ 2 8000 м пыль ясно +31.4 +1.6 15 +29 +40 жарко 1013.2 1013.0
12 17.10 СЗ 3 7000 м пыль ясно +32.4 +0.8 13 +29 +33 жарко 1011.2 1011.0
18 17.10 С 2 10 км ясно +22.4 +2.2 26 +22 +22 комфорт 1012.5 1013.0 +33.2
21 17.10 С 2 10 км ясно +21.8 +1.8 27 +22 +22 комфорт 1013.5 1014.0
00 18.10 СВ 1 10 км ясно +17.3 +2.2 36 +18 +18 1013.6 1014.0
03 18.10 СВ 3 10 км ясно +14.4 -0.3 36 +14 +14 1014.7 1015.0
09 18.10 10 км ясно +31.7 +3.9 17 1015.3 1015.0
12 18.10 С 2 10 км {туман} ясно +32.4 +4.0 17
18 18.10 С 2 10 км ясно +21.5 -0.7 23 +21 +21 комфорт 1016.5 1017.0 +33.4
21 18.10 С 2 10 км ясно +20.0 -1.9 23 +21 +21 комфорт 1016.5 1017.0
00 19.10 С 1 10 км ясно +18.6 +1.1 31 +20 +20 1016.6 1017.0
09 19.10 СЗ 2 10 км ясно +31.4 -1.9 12 +28 +39 жарко 1017.2 1017.0
15 19.10 штиль 0 10 км ясно +28.0 +3.1 20 +26 +26 жарко 1016.3 1016.0
21 19.10 С 1 10 км ясно +21.0 -4.6 17 +22 +22 комфорт 1017.5 1018.0
00 20.10 С 1 10 км ясно +22.0 -3.1 18 +21 +21 комфорт 1015.5 1016.0
06 20.10 СЗ 2 7000 м пыль ясно +24.6 -3.1 16 +23 +28 комфорт 1016.4 1016.0 +17.8
09 20.10 СЗ 4 8000 м пыль ясно +31.8 -4.5 9 +28 +35 жарко 1015.2 1015.0
12 20.10 СЗ 4 7000 м пыль ясно +32.0 -6.9 8 +28 +31 жарко 1013.2 1013.0
15 20.10 СЗ 2 8000 м пыль ясно +27.4 -1.9 15 +25 +25 комфорт 1013.3 1013.0
18 20.10 С 2 10 км ясно +22.4 -1.7 20 +21 +21 комфорт 1014.5 1015.0 +33.8
21 20.10 С 4 10 км ясно +20.2 -4.6 18 +20 +20 1013.5 1014.0
00 21.10 С 2 10 км ясно +16.7 -3.0 26 +17 +17 1013.6 1014.0
03 21.10 С 2 6000 м пыль ясно +14.6 -5.7 24 +15 +15 1013.7 1014.0
06 21.10 С 1 6000 м пыль ясно +23.0 -2.5 18 +22 +27 комфорт 1014.4 1014.0 +14.2
09 21.10 С 2 6000 м пыль ясно +32.0 -2.2 11 +28 +39 жарко 1013.2 1013.0
12 21.10 С 3 6000 м пыль ясно +32.6 -5.9 8 +29 +32 жарко 1011.1 1011.0
15 21.10 С 2 8000 м пыль ясно +28.0 0.0 16 +26 +26 жарко 1011.3 1011.0
18 21.10 штиль 0 10 км ясно +22.6 +0.8 24 +22 +22 комфорт 1012.4 1012.0 +33.4
21 21.10 С 1 10 км ясно +18.4 -1.5 26 +20 +20 1012.6 1013.0
00 22.10 С 1 10 км ясно +17.4 +1.1 33 +18 +18 1012.6 1013.0
03 22.10 штиль 0 10 км ясно +15.4 -2.6 29 +15 +15 1012.6 1013.0
06 22.10 С 1 10 км ясно +22.7 +0.6 23 +22 +28 комфорт 1012.5 1013.0 +15.4
09 22.10 СЗ 4 6000 м пыль ясно +32.8 -0.4 12 +29 +37 жарко 1011.2 1011.0
12 22.10 СЗ 4 7000 м пыль ясно +32.4 -2.0 11 +29 +32 жарко 1010.2 1010.0
15 22.10 СЗ 3 7000 м пыль 3/0
[Ci fib]
+27.6 +3.0 21 +26 +26 жарко 1011.3 1011.0
18 22.10 СЗ 2 7000 м ясно +22.4 -0.4 22 +22 +22 комфорт 1011.4 1011.0 +33.7

 

Местоположение метеостанции Badrah (Ирак): широта 33.10 долгота 45.95 высота над уровнем моря 64 м.

В архиве по умолчанию представлена погода в Badrah за последнюю неделю. Архивные данные за месяц целиком и за предыдущие месяцы, начиная с января 2011 года, Вы можете получить, выбрав интересующий диапазон дат из раскрывающегося списка и нажав кнопку "Ввод!".

Внимание! Время в таблицах - всемирное. Для получения местного времени необходимо прибавить поправку, которая в Badrah равна 3 ч.

Смотрите также архив погоды в соседних городах и на ближайших метеорологических станциях:

Погода в Ubaydah Bin Al Jarrah (Ирак) (70 км)
Погода в Ilam (Иран) (74 км)
Погода в Azizyah (Ирак) (84 км)
Погода в Ali Al-Gharbi (Ирак) (100 км)
Погода в Kut-Al-Hai (Ирак) (104 км)
Погода в Ayn Al-Tamar (Ирак) (125 км)
Погода в Khanaqin (Ирак) (142 км)
Погода в Rifai (Ирак) (154 км)
Погода в Diwaniya (Ирак) (154 км)
Погода в Al-Khalis (Ирак) (155 км)

Пояснения к столбцам:

Ветер - указаны скорость ветра в м/с - средняя за 10 мин, порывы в срок и между сроками (в фигурных скобках) и направление, откуда дует ветер: С - северный, СВ - северо-восточный, В - восточный, ЮВ - юго-восточный, Ю - южный, ЮЗ - юго-западный, З - западный, СЗ - северо-западный.
Видимость - горизонтальная дальность видимости в метрах или километрах. При видимости от 1 до 10 км при отсутствии осадков обычно наблюдается дымка, при ухудшении видимости до 1 км и менее - туман. В сухую погоду видимость может ухудшаться дымом, пылью или мглою.
Явления - указаны атмосферные явления, наблюдавшиеся в срок или в последний час перед сроком; фигурными скобками обозначены явления, наблюдавшиеся между сроками (за 1-3 часа до срока); квадратными скобками обозначены град или гололедные отложения с указанием их диаметра в мм.
Облачность - указаны через наклонную черту общая и нижняя облачность в баллах и высота нижней границы облаков в метрах; квадратными скобками обозначены формы облаков: Ci - перистые, Cs - перисто-слоистые, Cc - перисто-кучевые, Ac - высококучевые, As - высокослоистые, Sc - слоисто-кучевые, Ns - слоисто-дождевые, Cu - кучевые, Cb - кучево-дождевые. Подробнее классификацию облаков см. в Атласе облаков (PDF).
T - Температура воздуха - температура, измеренная на высоте 2 м над землей.
Td - Температура точки росы - температура, при понижении до которой содержащийся в воздухе водяной пар достигнет насыщения.
f - Относительная влажность воздуха - влажноcть воздуха, измеренная на высоте 2 м над землей.
Te - Эффективная температура - температура, которую ощущает одетый по сезону человек в тени. Характеристика душности погоды. При расчете учитывается влияние влажности воздуха и скорости ветра на теплоощущения человека.
Tes - Эффективная температура на солнце - температура, которую ощущает человек, с поправкой на солнечный нагрев. Характеристика знойности погоды. Зависит от высоты солнца над горизонтом, облачности и скорости ветра. Ночью, в пасмурную погоду, а также при ветре 12 м/с и более поправка равна нулю.
P - Атмосферное давление - приведенное к уровню моря атмосферное давление.
Po - Атмосферное давление - измеренное на уровне метеостанции атмосферное давление.
Tmin - Минимальная температура - минимум температуры воздуха на высоте 2 м над землей.
Tmax - Максимальная температура - максимум температуры воздуха на высоте 2 м над землей.
R - Количество осадков - Количество выпавших осадков за период времени, мм. При наведении курсора мыши на число - период времени, за который выпало указанное количество осадков.
R24 - Количество осадков - Количество выпавших осадков за 24 часа, мм.
S - Снежный покров - Высота снежного покрова, см. При наведении курсора мыши на число - состояние снежного покрова и степень покрытия местности в баллах.